Torna al catalogo

THORAD DELTA 1 DEB

AttivoSSO
NORAD 8556·DEBRIS·🇺🇸 United States

Lanciato Nov 15, 1974 da Vandenberg Space Force Base

Loading…

Prossimi Passaggi (prossime 24 ore)

TLE

AggiornatoSource: Space-Track

Epoca: Sep 14, 2026, 07:24 UTC

1 08556U 74089CT  26257.30851149  .00000049  00000-0  56609-3 0  9997
2 08556 101.3490  30.6843 0080569 353.1511  35.6770 12.53547947368131

Traccia THORAD DELTA 1 DEB in tempo reale con AllMySat

Download on the App Store